Regional Weather Roundup
Issued by NWS

Home | Current Version | Previous Version | Text Only | Print | Product List | Glossary Off
Versions: 1 2 3 4 5 6 7 8 9 10 11 12 13 14 15 16 17 18 19 20 21 22 23 24 25 26 27 28 29 30 31 32 33 34 35 36 37 38 39 40 41 42 43 44 45 46 47 48 49 50

000
ASUS43 KIND 200709
RWRIN

WEATHER ROUNDUP FOR INDIANA
NATIONAL WEATHER SERVICE INDIANAPOLIS IN
300 AM EDT THU JUL 20 2017

NOTE: "FAIR" INDICATES FEW OR NO CLOUDS BELOW 12,000 FEET WITH NO
SIGNIFICANT WEATHER AND/OR OBSTRUCTIONS TO VISIBILITY.

* - STATION DOES NOT REPORT WEATHER SUCH AS PRECIPITATION OR FOG.

+ - STATION NOT QUALITY CONTROLLED BY THE NATIONAL WEATHER SERVICE.
    USE DATA WITH CAUTION...ESPECIALLY DEWPOINT AND RELATIVE
    HUMIDITY OBSERVATIONS.

INZ001>003-010>013-019-020-200800-
NORTHWEST INDIANA

CITY           SKY/WX    TMP DP  RH WIND       PRES   REMARKS
GARY /AIRPORT/ CLOUDY    71  68  93 CALM      30.02S
KNOX *+        CLOUDY    68  66  94 S5        30.02F
LA PORTE +     CLOUDY    68  67  97 S7        30.02F
MICHIGAN CITY+ MOCLDY    68  68 100 S7        30.00S
MONTICELLO +   CLOUDY    69  68  95 SE3       30.05F
RENSSELAER +   CLOUDY    68  66  94 SE10      30.01F
VALPARAISO     CLOUDY    70  69  97 CALM      30.02F

$$

LMZ046-743>745-200800-
SOUTHERN LAKE MICHIGAN

STATION/POSITION TIME  TEMP    WIND        PRES    WAVE
                       AIR SEA DIR/SP/G            HT
                 (UTC) (F)     (DEG/KT/KT) (MB)    (FT)
BURNS HARBOR     0640   71     190/  9/ 12 1016.3F
MICHIGAN CITY    0640   70     170/ 11/ 12   N/A
5NW MICH CITY    0700   71 74  190/ 12/ 16   N/A     1

$$

INZ004-005-014>016-021>024-200800-
NORTH CENTRAL INDIANA

CITY           SKY/WX    TMP DP  RH WIND       PRES   REMARKS
GOSHEN         LGT RAIN  71  65  81 SE6       29.98
LOGANSPORT +   CLOUDY    68  68 100 CALM      30.06F
PERU/GRISSOM   CLOUDY    71  70  98 CALM      30.04F
ROCHESTER +    CLOUDY    72  68  88 SW6       30.05F
SOUTH BEND     CLOUDY    69  68  96 SW8       29.98F
WARSAW +       LGT RAIN  68  68 100 CALM      30.01F

$$

INZ006>009-017-018-025>027-200800-
NORTHEAST INDIANA

CITY           SKY/WX    TMP DP  RH WIND       PRES   REMARKS
ANGOLA *+      PTCLDY    77  72  83 SW8       29.98F
AUBURN +       CLOUDY    77  64  65 W8G18     30.03F
FORT WAYNE     CLOUDY    76  67  73 W12G25    30.04F
HUNTINGTON +   CLOUDY    71  69  93 N5        30.03F
KENDALLVILLE + CLOUDY   N/A N/A N/A SW8       30.03F

$$

INZ028-029-035-036-043>045-051>053-200800-
WEST CENTRAL INDIANA

CITY           SKY/WX    TMP DP  RH WIND       PRES   REMARKS
GREENCASTLE +  PTCLDY    72  72 100 N5        30.11S
LAFAYETTE      CLOUDY    69  69 100 CALM      30.07F
TERRE HAUTE    CLEAR     73  71  93 CALM      30.07F FOG

$$

INZ030>032-037>040-046>048-054>057-064-065-200800-
CENTRAL INDIANA

CITY           SKY/WX    TMP DP  RH WIND       PRES   REMARKS
CP ATTERBURY + CLEAR     68  66  94 CALM      30.10F
FRANKFORT +    CLOUDY    71  70  94 CALM      30.09F
INDIANAPOLIS   PTCLDY    75  72  90 S6        30.07F
-EAGLE CREEK   MOCLDY    77  72  84 MISG      30.09F
KOKOMO +       CLOUDY    71  69  93 VRB3      30.07F
MARION +       CLOUDY    73  66  78 N6        30.08F
MT COMFORT *+  PTCLDY    72  72 100 CALM      30.11F
SHELBYVILLE    CLEAR     72  68  87 CALM      30.09F
ZIONSVILLE +   PTCLDY    71  67  88 CALM      30.10F

$$

INZ033-034-041-042-049-050-058-059-200800-
EAST CENTRAL INDIANA

CITY           SKY/WX    TMP DP  RH WIND       PRES   REMARKS
MUNCIE         PTCLDY    77  72  84 SW5       30.08F
RICHMOND +     CLEAR     70  68  94 W3        30.12S

$$

INZ060-061-067>069-081>083-085>088-200800-
SOUTHWEST INDIANA

CITY           SKY/WX    TMP DP  RH WIND       PRES   REMARKS
EVANSVILLE     CLEAR     76  73  91 CALM      30.09F
HUNTINGBURG *+ CLEAR     73  72  96 CALM      30.10F FOG

$$

INZ062-063-066-070>080-084-089>092-200800-
SOUTH CENTRAL AND SOUTHEAST INDIANA

CITY           SKY/WX    TMP DP  RH WIND       PRES   REMARKS
BEDFORD +      CLEAR     72  70  94 CALM      30.10F
BLOOMINGTON    CLEAR     71  68  90 CALM      30.10F FOG
MADISON *+     CLEAR     72  70  94 CALM      30.12F
NORTH VERNON + CLEAR     68  68 100 CALM      30.11F
SEYMOUR +      CLEAR     70  70 100 CALM      30.09F FOG

$$




USA.gov is the U.S. government's official web portal to all federal, state and local government web resources and services.